CAPE
549 602 687 1037 1380 1235 1322 1886 2263 2183 2237 1599 1522 2169 2061 1817 1615 1646 1474 1610 1626 1565 1442 1247 1355 1008 650 552 696 649 963 1030 784 674 799 684 679 355 272 270 425 18 24
531 714 760 573 646 1227 1318 1208 1686 2029 2118 1921 1897 2053 1893 1626 1417 1396 1333 1189 1363 1494 1129 1285 1311 1009 681 502 679 1029 715 571 597 512 333 307 487 526 308 233 402 158 75
297 491 707 648 459 505 756 1136 1155 1291 1676 1623 1775 1778 1874 1598 1469 1266 1194 1126 1064 1417 1396 1084 1339 1046 889 934 1002 988 687 457 621 405 281 151 180 386 340 286 372 226 48
285 544 679 553 480 495 413 394 788 1050 1036 1171 1482 1559 1822 1650 1572 1394 1183 1005 994 1195 1188 1632 1630 1458 1345 987 911 950 764 610 575 374 94 92 109 417 312 308 266 38 23
46 222 311 373 519 490 421 304 322 594 929 1017 973 1396 1888 1897 1677 1558 1361 1526 1568 1522 1449 1557 1388 1444 1045 952 781 963 752 874 403 210 77 55 82 207 267 315 258 73 10
24 23 157 138 289 424 430 343 200 272 350 676 838 959 1192 1516 1761 1737 1856 1621 1295 1251 1591 1523 1397 1329 1142 1095 648 614 780 674 302 30 37 50 60 256 158 63 48 3 6
3 3 18 30 103 186 403 416 329 191 196 128 372 866 641 1039 1489 1581 1305 1257 1390 1429 1666 1531 1234 920 832 867 663 498 832 587 97 40 38 93 114 258 106 50 22 2 5
2 10 0 0 5 0 34 252 357 263 203 149 144 58 185 630 774 1233 1182 1018 1344 1500 1598 1715 1177 850 578 409 374 594 618 158 52 29 27 60 315 388 125 25 4 3 5
1 0 0 0 0 0 0 1 78 298 261 194 160 165 86 29 189 706 1036 1150 1034 1427 1473 1602 1172 1237 773 496 580 572 387 107 26 22 33 49 373 300 142 47 2 2 3
0 0 0 0 0 0 0 0 0 0 81 280 197 223 223 122 14 24 471 586 749 1311 1501 1579 1241 1314 1122 890 752 540 185 21 14 4 28 24 618 381 178 48 19 2 2
0 0 0 0 0 0 0 0 0 0 0 5 106 157 196 201 171 40 4 281 554 957 1517 1460 1310 1221 1221 877 543 335 51 0 0 0 19 211 665 371 301 36 25 8 0
0 0 0 0 0 0 0 0 0 0 0 0 0 5 155 153 178 295 76 39 280 740 1114 1270 1150 941 851 276 361 309 13 0 0 1 27 270 559 400 420 153 175 2 0
0 0 0 0 0 0 0 0 0 0 0 0 0 0 5 28 130 85 227 65 59 189 444 605 739 463 564 69 35 24 1 0 0 0 9 260 686 561 540 264 373 42 20
0 0 0 0 0 0 0 0 0 0 0 0 0 0 0 0 20 186 117 261 64 214 335 482 338 194 209 77 33 14 0 0 0 0 5 224 672 442 623 503 140 63 17
0 0 0 0 0 0 0 0 0 0 0 0 0 0 0 0 0 15 80 46 122 42 139 348 332 236 161 93 125 25 0 0 0 0 0 27 198 687 395 666 222 55 0
0 0 0 0 0 0 0 0 0 0 0 0 0 0 0 0 0 0 14 7 3 10 89 44 179 266 223 184 233 6 0 0 0 0 0 15 121 384 733 643 390 106 0
0 0 0 0 0 0 0 0 0 0 0 0 0 0 0 0 0 0 0 6 10 19 27 2 116 207 190 227 29 5 0 0 0 0 3 5 18 18 302 679 619 366 16
0 0 0 0 0 0 0 0 0 0 0 0 0 0 0 0 0 0 0 0 6 21 34 19 37 243 200 183 30 0 0 0 0 0 4 0 2 4 8 428 325 349 155
0 0 0 0 0 0 0 0 0 0 0 0 0 0 0 0 0 0 0 0 0 8 25 44 7 133 83 149 91 37 0 14 0 1 0 2 1 5 5 139 123 84 39
0 0 0 0 0 0 0 0 0 0 0 0 0 0 0 0 0 0 0 0 0 0 11 17 8 4 72 96 63 18 13 50 50 0 0 4 8 16 34 34 119 41 8
0 0 0 0 0 0 0 0 0 0 0 0 0 0 0 0 0 0 0 0 0 0 3 20 4 5 144 154 4 48 18 42 70 6 0 10 16 19 43 64 55 26 21
0 0 0 0 0 0 0 0 0 0 0 0 0 0 0 0 0 0 0 0 0 0 2 24 20 8 39 29 69 43 0 14 1 30 1 0 12 14 35 69 48 46 30
0 0 0 0 0 0 0 0 0 0 0 0 0 0 0 0 0 0 0 0 0 0 0 15 19 9 1 29 1 37 21 0 9 60 5 13 7 10 6 57 64 48 32
0 0 0 0 0 0 0 0 0 0 0 0 0 0 0 0 0 0 0 0 0 0 0 0 21 4 0 0 0 90 30 46 0 42 24 30 10 10 5 0 67 23 23
0 0 0 0 0 0 0 0 0 0 0 0 0 0 0 0 0 0 0 0 0 0 0 0 0 19 0 2 0 0 0 47 50 41 38 33 23 0 1 0 0 136 75
0 0 0 0 0 0 0 0 0 0 0 0 0 0 0 0 0 0 0 0 0 0 0 0 0 18 29 36 10 0 0 36 30 0 0 37 34 16 25 0 0 193 133
CIN
-1 0 0 -1 -3 -13 -14 -5 -3 -3 -1 -2 -1 0 0 -2 -6 -6 -10 -8 -9 -4 0 0 0 0 -4 -9 -12 -10 -1 0 -1 -1 -1 0 0 -4 -18 -26 -7 -20 -67
0 0 0 -7 -5 -1 -5 -9 -10 -5 -4 -3 -1 -2 0 -2 -7 -9 -11 -12 -8 0 0 0 0 0 -1 -10 -9 0 -1 -6 -6 -9 -12 -16 -3 -2 -24 -51 -20 -70 -105
0 0 0 -2 -22 -27 -4 -1 -3 -11 -10 -13 -7 -6 0 -1 -5 -8 -10 -10 -8 -3 -1 0 0 0 0 0 -1 0 -4 -5 -6 -15 -29 -47 -27 -8 -20 -45 -45 -77 -161
-17 0 0 0 -4 -9 -27 -6 0 -1 -9 -17 -14 -14 -5 -2 -2 -4 -6 -8 -6 -4 -4 0 0 0 0 0 -1 0 0 -4 -10 -15 -77 -80 -62 -7 -22 -36 -67 -68 -20
-149 -15 -2 -1 0 0 -1 -21 -13 -1 0 -4 -14 -10 -6 -4 -6 -4 -3 -1 -2 -2 -2 -1 -3 -1 0 0 0 0 0 -2 -16 -36 -83 -125 -121 -45 -40 -44 -68 -88 -5
-147 -134 -31 -45 -14 -5 0 -8 -21 -4 -1 0 0 -3 -8 -6 -4 -3 -2 -3 -4 -3 -1 -1 -4 -3 -1 0 0 0 0 -7 -41 -28 -57 -36 -51 -62 -69 -2 -8 -14 0
-32 -38 -126 -76 -46 -28 -5 -4 -6 -36 -21 -40 -4 0 -1 -1 -1 -4 -10 -9 -5 -3 -1 -1 -2 -3 -5 -1 0 0 0 -8 -103 -4 -4 -106 -121 -61 -110 -6 -13 0 0
-1 -77 -88 0 -133 -105 -65 -10 -10 -7 -17 -33 -33 -55 -44 -3 -1 -1 -6 -13 -5 -2 -2 0 -1 -1 -6 -4 -1 -1 -2 -64 -51 -9 -27 -31 -80 -42 -105 -23 -11 0 0
0 0 0 0 0 0 0 -104 -50 -18 -27 -21 -18 -14 -28 -66 -29 -1 -1 -5 -8 -2 -2 0 -1 0 -1 -2 0 -1 -17 -88 -75 -19 -35 -26 -66 -55 -99 -12 0 0 0
0 0 0 0 0 0 0 0 0 0 -36 -15 -21 -15 -8 -12 -61 -67 -6 -5 -1 -3 -2 -1 -1 0 0 0 -1 -6 -47 -68 -75 -46 -20 -44 -24 -38 -77 -14 -26 0 0
0 0 0 0 0 0 0 0 0 0 0 -10 -13 -21 -22 -17 -9 -11 -12 -11 -7 -6 -1 -1 -1 -1 -2 -3 -7 -21 -64 0 0 0 -17 -90 -14 -35 -52 -14 -13 -14 0
0 0 0 0 0 0 0 0 0 0 0 0 0 -4 -6 -11 -21 -3 -12 -33 -8 -6 -4 -4 -3 -3 -4 -12 -14 -14 -48 0 0 -2 -18 -79 -17 -27 -29 -29 -51 0 0
0 0 0 0 0 0 0 0 0 0 0 0 0 0 -8 -24 -18 -34 -5 -20 -22 -6 -7 -10 -6 -8 -3 -24 -60 -95 -39 0 0 0 -17 -81 -19 -8 -4 -29 -20 -2 -7
0 0 0 0 0 0 0 0 0 0 0 0 0 0 0 -3 -20 -2 -11 -1 -9 0 -2 -12 -15 -15 -7 -37 -47 -1 0 0 0 0 -38 -60 -26 -24 -1 0 -53 -86 0
0 0 0 0 0 0 0 0 0 0 0 0 0 0 0 0 0 -10 -11 -24 -4 -1 -1 -5 -16 -8 -12 -16 -2 -7 0 0 0 0 0 -68 -63 -16 -16 0 -27 -91 -1
0 0 0 0 0 0 0 0 0 0 0 0 0 0 0 0 0 0 -6 -12 -1 -1 -4 -95 -4 -15 -5 -5 0 -23 0 0 0 0 0 -81 -101 -31 -10 0 -31 -103 0
0 0 0 0 0 0 0 0 0 0 0 0 0 0 0 0 0 0 -1 0 -7 -1 -1 -2 -1 -2 -13 -8 -8 -71 0 0 0 0 -39 -85 -83 -53 -26 -1 0 -22 -39
0 0 0 0 0 0 0 0 0 0 0 0 0 0 0 0 0 0 0 0 -2 -1 0 -14 -1 0 0 -2 -36 0 0 -1 0 0 -23 0 -80 -67 -25 -10 -3 -13 -53
0 0 0 0 0 0 0 0 0 0 0 0 0 0 0 0 0 0 0 0 0 -2 -4 -6 -32 0 -1 0 -4 -1 0 -4 0 -8 0 -15 -58 -109 -56 -30 -20 -61 -5
0 0 0 0 0 0 0 0 0 0 0 0 0 0 0 0 0 0 0 0 0 0 -2 -1 -60 -15 0 -6 -2 0 -4 -1 0 0 0 -18 -13 -103 -76 -61 -15 -4 -4
0 0 0 0 0 0 0 0 0 0 0 0 0 0 0 0 0 0 0 0 0 0 0 -11 -23 -1 0 0 0 0 -1 0 0 -6 0 -20 -18 -116 -75 -50 -15 -19 -12
0 0 0 0 0 0 0 0 0 0 0 0 0 0 0 0 0 0 0 0 0 0 0 -1 -2 -2 -18 -4 -2 0 0 -4 0 -6 -7 0 -10 -121 -66 -44 -17 -19 -19
0 0 0 0 0 0 0 0 0 0 0 0 0 0 0 0 0 0 0 0 0 0 0 -5 0 0 -1 -5 0 -10 0 0 0 -4 -2 -26 -4 -11 -26 -42 -88 -55 -14
0 0 0 0 0 0 0 0 0 0 0 0 0 0 0 0 0 0 0 0 0 0 0 0 0 -3 0 0 0 -7 -2 0 0 0 0 -74 -14 -10 -13 0 -43 -62 -123
0 0 0 0 0 0 0 0 0 0 0 0 0 0 0 0 0 0 0 0 0 0 0 0 0 -6 0 -1 0 0 0 0 -7 0 -1 -34 -108 0 -7 0 0 -1 -3
0 0 0 0 0 0 0 0 0 0 0 0 0 0 0 0 0 0 0 0 0 0 0 0 0 0 0 0 0 0 0 -11 -5 0 0 -7 -38 -130 -33 0 0 -1 -1
Wind_Speed
34 32 46 47 32 26 27 27 27 26 25 23 22 23 24 22 23 23 23 21 21 21 22 21 22 21 20 19 19 21 20 20 18 15 14 11 10 11 11 12 15 nan nan
23 33 46 48 46 43 29 27 26 26 26 26 24 22 24 24 23 23 21 20 20 19 20 20 20 20 21 21 20 21 21 21 21 18 15 12 10 7 11 13 16 16 nan
29 34 38 47 47 44 46 38 26 27 26 25 26 24 24 23 25 24 22 21 19 17 19 19 19 20 21 22 21 19 19 19 17 16 14 11 11 7 11 15 17 19 nan
30 30 32 45 44 44 43 40 40 34 24 23 24 24 24 24 23 23 22 21 20 20 19 17 17 19 23 23 21 19 17 14 13 14 nan nan 13 15 18 18 21 nan nan
nan 32 33 41 43 43 44 43 41 38 39 26 20 23 23 24 23 22 20 21 21 21 20 19 19 24 23 22 22 17 14 11 11 11 nan nan nan 16 18 22 23 nan nan
nan nan 37 46 47 47 46 47 46 47 41 39 32 22 19 23 25 24 23 21 22 22 22 22 24 26 25 22 20 18 13 12 12 nan nan nan nan 18 19 nan nan nan nan
nan nan nan nan 47 49 47 48 46 47 50 49 42 35 24 20 21 25 25 22 23 22 23 23 23 24 26 23 19 18 16 15 nan nan nan nan 14 19 19 nan nan nan nan
nan nan nan nan nan nan nan 48 48 49 50 49 49 nan 46 31 22 22 24 25 25 24 24 22 24 21 24 23 19 19 19 18 nan nan nan nan 16 20 18 nan nan nan nan
nan nan nan nan nan nan nan nan nan 50 52 53 53 51 nan nan 41 23 22 24 25 25 26 26 25 22 23 23 22 22 21 21 nan nan nan nan 20 22 20 nan nan nan nan
nan nan nan nan nan nan nan nan nan nan nan 53 54 55 51 48 nan nan 31 22 26 27 28 29 28 25 25 24 25 25 22 nan nan nan nan nan 20 22 22 nan nan nan nan
nan nan nan nan nan nan nan nan nan nan nan nan 52 54 48 44 42 nan nan 34 22 28 29 31 31 29 30 26 25 26 nan nan nan nan nan 21 22 23 22 nan nan nan nan
nan nan nan nan nan nan nan nan nan nan nan nan nan nan 47 45 42 43 nan nan 28 30 30 33 33 34 35 37 34 29 nan nan nan nan nan 23 20 23 26 27 28 nan nan
nan nan nan nan nan nan nan nan nan nan nan nan nan nan nan nan 46 nan 42 nan nan 32 38 35 39 41 41 nan nan nan nan nan nan nan nan 29 24 24 29 30 32 nan nan
nan nan nan nan nan nan nan nan nan nan nan nan nan nan nan nan nan 49 46 42 nan 38 31 39 46 44 45 nan nan nan nan nan nan nan nan 36 33 29 27 34 35 nan nan
nan nan nan nan nan nan nan nan nan nan nan nan nan nan nan nan nan nan nan nan 40 nan 38 35 44 49 44 nan 43 nan nan nan nan nan nan nan 36 32 26 33 38 nan nan
nan nan nan nan nan nan nan nan nan nan nan nan nan nan nan nan nan nan nan nan nan nan nan nan 53 46 50 45 40 nan nan nan nan nan nan nan 39 36 34 32 29 30 nan
nan nan nan nan nan nan nan nan nan nan nan nan nan nan nan nan nan nan nan nan nan nan nan nan 53 51 55 48 nan nan nan nan nan nan nan nan nan nan 36 33 30 31 nan
nan nan nan nan nan nan nan nan nan nan nan nan nan nan nan nan nan nan nan nan nan nan nan nan nan 38 42 37 nan nan nan nan nan nan nan nan nan nan nan 35 34 30 30
nan nan nan nan nan nan nan nan nan nan nan nan nan nan nan nan nan nan nan nan nan nan nan nan nan 36 nan 45 nan nan nan nan nan nan nan nan nan nan nan 40 36 nan nan
nan nan nan nan nan nan nan nan nan nan nan nan nan nan nan nan nan nan nan nan nan nan nan nan nan nan nan nan nan nan nan nan nan nan nan nan nan nan nan nan 41 nan nan
nan nan nan nan nan nan nan nan nan nan nan nan nan nan nan nan nan nan nan nan nan nan nan nan nan nan 66 38 nan nan nan nan nan nan nan nan nan nan nan nan nan nan nan
nan nan nan nan nan nan nan nan nan nan nan nan nan nan nan nan nan nan nan nan nan nan nan nan nan nan nan nan nan nan nan nan nan nan nan nan nan nan nan nan nan nan nan
nan nan nan nan nan nan nan nan nan nan nan nan nan nan nan nan nan nan nan nan nan nan nan nan nan nan nan nan nan nan nan nan nan nan nan nan nan nan nan nan nan nan nan
nan nan nan nan nan nan nan nan nan nan nan nan nan nan nan nan nan nan nan nan nan nan nan nan nan nan nan nan nan nan nan nan nan nan nan nan nan nan nan nan nan nan nan
nan nan nan nan nan nan nan nan nan nan nan nan nan nan nan nan nan nan nan nan nan nan nan nan nan nan nan nan nan nan nan nan nan nan nan nan nan nan nan nan nan 44 nan
nan nan nan nan nan nan nan nan nan nan nan nan nan nan nan nan nan nan nan nan nan nan nan nan nan nan nan nan nan nan nan nan nan nan nan nan nan nan nan nan nan 48 45
Wind_Direction
211 216 218 223 225 238 242 244 249 253 258 260 260 261 260 254 258 255 261 262 264 265 269 266 265 265 265 256 262 265 270 267 266 257 268 268 261 273 253 230 211 nan nan
222 222 216 222 228 229 243 255 256 256 260 258 258 262 261 260 260 263 263 260 265 269 270 266 268 270 269 263 262 267 271 263 255 253 259 249 243 259 254 223 214 209 nan
225 222 220 217 223 231 229 233 250 266 263 256 260 262 267 266 264 262 260 262 263 266 268 263 265 269 270 267 261 269 271 262 252 254 261 240 224 239 249 230 225 223 nan
222 227 227 223 221 226 233 231 234 238 251 261 260 261 267 271 269 265 262 265 263 263 261 258 262 268 269 267 261 267 271 254 244 251 nan nan 234 251 249 239 228 nan nan
nan 228 223 221 227 226 227 230 229 236 242 239 249 261 262 267 271 264 261 258 261 262 263 259 253 264 273 270 260 264 263 244 235 242 nan nan nan 246 243 229 227 nan nan
nan nan 229 221 221 225 226 228 229 227 232 238 240 235 256 256 260 266 264 257 259 256 261 262 258 263 268 268 259 255 247 220 223 nan nan nan nan 266 246 nan nan nan nan
nan nan nan nan 226 225 225 224 226 227 228 228 232 238 240 248 250 258 261 253 253 256 256 261 264 268 267 267 258 249 235 209 nan nan nan nan 246 273 260 nan nan nan nan
nan nan nan nan nan nan nan 222 224 228 230 230 233 nan 232 234 239 252 260 260 254 255 256 264 265 269 269 267 264 247 233 214 nan nan nan nan 271 278 264 nan nan nan nan
nan nan nan nan nan nan nan nan nan 222 226 228 227 227 nan nan 237 240 254 265 262 258 261 265 268 273 273 273 265 255 236 220 nan nan nan nan 272 277 274 nan nan nan nan
nan nan nan nan nan nan nan nan nan nan nan 227 226 224 225 228 nan nan 244 252 266 262 262 267 270 271 275 274 269 261 246 nan nan nan nan nan 270 275 278 nan nan nan nan
nan nan nan nan nan nan nan nan nan nan nan nan 228 224 230 236 234 nan nan 247 253 264 263 264 269 268 264 264 269 266 nan nan nan nan nan 256 267 273 276 nan nan nan nan
nan nan nan nan nan nan nan nan nan nan nan nan nan nan 240 235 235 231 nan nan 237 254 264 262 267 265 260 251 252 258 nan nan nan nan nan 256 273 279 277 272 262 nan nan
nan nan nan nan nan nan nan nan nan nan nan nan nan nan nan nan 239 nan 236 nan nan 248 249 256 255 254 252 nan nan nan nan nan nan nan nan 251 263 280 283 278 265 nan nan
nan nan nan nan nan nan nan nan nan nan nan nan nan nan nan nan nan 238 237 233 nan 239 258 257 253 255 252 nan nan nan nan nan nan nan nan 253 257 265 282 279 276 nan nan
nan nan nan nan nan nan nan nan nan nan nan nan nan nan nan nan nan nan nan nan 237 nan 238 269 261 257 254 nan 247 nan nan nan nan nan nan nan 253 257 276 284 278 nan nan
nan nan nan nan nan nan nan nan nan nan nan nan nan nan nan nan nan nan nan nan nan nan nan nan 263 255 251 248 245 nan nan nan nan nan nan nan 249 248 266 277 278 283 nan
nan nan nan nan nan nan nan nan nan nan nan nan nan nan nan nan nan nan nan nan nan nan nan nan 249 237 249 248 nan nan nan nan nan nan nan nan nan nan 246 276 280 278 nan
nan nan nan nan nan nan nan nan nan nan nan nan nan nan nan nan nan nan nan nan nan nan nan nan nan 263 250 256 nan nan nan nan nan nan nan nan nan nan nan 255 271 275 283
nan nan nan nan nan nan nan nan nan nan nan nan nan nan nan nan nan nan nan nan nan nan nan nan nan 251 nan 251 nan nan nan nan nan nan nan nan nan nan nan 244 261 nan nan
nan nan nan nan nan nan nan nan nan nan nan nan nan nan nan nan nan nan nan nan nan nan nan nan nan nan nan nan nan nan nan nan nan nan nan nan nan nan nan nan 248 nan nan
nan nan nan nan nan nan nan nan nan nan nan nan nan nan nan nan nan nan nan nan nan nan nan nan nan nan 254 249 nan nan nan nan nan nan nan nan nan nan nan nan nan nan nan
nan nan nan nan nan nan nan nan nan nan nan nan nan nan nan nan nan nan nan nan nan nan nan nan nan nan nan nan nan nan nan nan nan nan nan nan nan nan nan nan nan nan nan
nan nan nan nan nan nan nan nan nan nan nan nan nan nan nan nan nan nan nan nan nan nan nan nan nan nan nan nan nan nan nan nan nan nan nan nan nan nan nan nan nan nan nan
nan nan nan nan nan nan nan nan nan nan nan nan nan nan nan nan nan nan nan nan nan nan nan nan nan nan nan nan nan nan nan nan nan nan nan nan nan nan nan nan nan nan nan
nan nan nan nan nan nan nan nan nan nan nan nan nan nan nan nan nan nan nan nan nan nan nan nan nan nan nan nan nan nan nan nan nan nan nan nan nan nan nan nan nan 239 nan
nan nan nan nan nan nan nan nan nan nan nan nan nan nan nan nan nan nan nan nan nan nan nan nan nan nan nan nan nan nan nan nan nan nan nan nan nan nan nan nan nan 240 242